This is the latest recevied weather packets stored in our database for station/object KV9E. If no packets are shown the sender has not sent any weather packets the latest 10 day(s).
| Time | Temp. | Humidity | Pressure | Rain* | Wind** | Luminosity | Snow |
|---|---|---|---|---|---|---|---|
| 1778344798 | 17.78° C | 80% | 1011.6 hPa | 0 mm | - | 183 W/m² | - |
| 1778344496 | 17.22° C | 82% | 1011.6 hPa | 0 mm | - | 549 W/m² | - |
| 1778344195 | 16.67° C | 83% | 1011.4 hPa | 0 mm | - | 743 W/m² | - |
| 1778343894 | 16.11° C | 85% | 1011.3 hPa | 0 mm | - | 710 W/m² | - |
| 1778343589 | 16.11° C | 84% | 1011.6 hPa | 0 mm | - | 119 W/m² | - |
| 1778343286 | 16.11° C | 85% | 1011.3 hPa | 0 mm | - | 176 W/m² | - |
| 1778342981 | 16.11° C | 83% | 1011.6 hPa | 0 mm | - | 185 W/m² | - |
| 1778342677 | 16.11° C | 84% | 1011.4 hPa | 0 mm | - | 140 W/m² | - |
| 1778342372 | 16.67° C | 82% | 1011.3 hPa | 0 mm | - | 221 W/m² | - |
| 1778342070 | 16.67° C | 84% | 1011.1 hPa | 0 mm | - | 159 W/m² | - |
| 1778341766 | 16.11° C | 85% | 1011.1 hPa | 0 mm | - | 214 W/m² | - |
| 1778341462 | 16.11° C | 84% | 1011.3 hPa | 0 mm | - | 184 W/m² | - |
| 1778341159 | 16.11° C | 85% | 1011.2 hPa | 0 mm | - | 205 W/m² | - |
| 1778340856 | 15.56° C | 85% | 1011.3 hPa | 0 mm | - | 213 W/m² | - |
| 1778340553 | 15.56° C | 86% | 1011.1 hPa | 0 mm | - | 210 W/m² | - |
| 1778340249 | 15.56° C | 85% | 1011.3 hPa | 0 mm | - | 174 W/m² | - |
| 1778339947 | 15° C | 86% | 1011 hPa | 0 mm | - | 180 W/m² | - |
| 1778339642 | 15° C | 86% | 1011.2 hPa | 0 mm | - | 189 W/m² | - |
| 1778339341 | 15° C | 87% | 1011 hPa | 0 mm | - | 150 W/m² | - |
| 1778339039 | 14.44° C | 88% | 1011 hPa | 0 mm | - | 213 W/m² | - |
| 1778338737 | 15° C | 87% | 1010.8 hPa | 0 mm | - | 157 W/m² | - |
| 1778338435 | 15° C | 87% | 1010.7 hPa | 0 mm | - | 204 W/m² | - |
| 1778338132 | 14.44° C | 88% | 1010.7 hPa | 0 mm | - | 161 W/m² | - |
| 1778337829 | 14.44° C | 89% | 1010.7 hPa | 0 mm | - | 139 W/m² | - |
| 1778337526 | 14.44° C | 88% | 1010.7 hPa | 0 mm | - | 160 W/m² | - |
* Rain latest hour (hover to see other rain measurements)
** Current wind speed in m/s (hover to see current wind gust speed)